Flag for Germany Weather past 2 weeks in Coesfeld, North Rhine-Westphalia, Germany

Now
57 °F

Cool.


Feels Like: 55 °F
Forecast: 43 / 50 °F
Wind: 8 mph from Southwest

Location: Rheine-Bentlage

Current Time: Apr 26, 2015 at 12:13:35 PM

Latest Report: Apr 26, 2015 at 11:20 AM


Visibility: N/A

Pressure: 29.71 "Hg

Humidity: 82%

Dew point: 52 °F

Location of CoesfeldLocation

Historic Weather in Coesfeld — Graph

°F

Coesfeld temperature yesterday

Maximum temperature yesterday: 59 °F (at 4:20 PM)
Minimum temperature yesterday: 50 °F (at 2:20 AM)
Average temperature yesterday: 54 °F

Past Weeks' High & Low Weather Summary

 TemperatureHumidityPressure
High73 °F (Apr 15, 4:20 PM)100% (Apr 18, 7:20 AM)30.48 "Hg (Apr 18, 7:20 AM)
Low32 °F (Apr 18, 7:20 AM)30% (Apr 21, 2:20 PM)29.71 "Hg (Apr 25, 4:20 PM)
Average50 °F68%30.16 "Hg
* Reported Apr 11 10:20 AM — Apr 26 10:20 AM, Coesfeld, Weather by CustomWeather, © 2015

Note: Actual official high and low records may vary slightly from our data, if they occured in-between our weather recording intervals... More about our weather records

Advertising

Coesfeld weather history for previous 24 hours

 ConditionsComfort  
Time TempWeatherWind HumidityBarometerVisibility
10:20 AM
Sun, Apr 26
55 °FCool.7 mph88%29.71 "HgN/A
9:20 AM54 °FCool.5 mph94%29.71 "HgN/A
8:20 AM52 °FCool.No wind94%29.71 "HgN/A
7:20 AM52 °FCool.2 mph94%29.71 "HgN/A
6:20 AM52 °FCool.2 mph94%29.71 "HgN/A
5:20 AM52 °FCool.2 mph94%29.71 "HgN/A
4:20 AM50 °FCool.3 mph100%29.71 "HgN/A
3:20 AM48 °FCool.No wind100%29.74 "HgN/A
2:20 AM48 °FCool.2 mph100%29.74 "HgN/A
1:20 AM48 °FCool.2 mph100%29.74 "HgN/A
12:20 AM48 °FCool.1 mph100%29.74 "HgN/A
11:20 PM
Sat, Apr 25
50 °FCool.2 mph100%29.74 "HgN/A
10:20 PM52 °FCool.1 mph94%29.74 "HgN/A
9:20 PM52 °FCool.1 mph94%29.74 "HgN/A
8:20 PM55 °FCool.2 mph88%29.74 "HgN/A
7:20 PM54 °FCool.3 mph94%29.71 "HgN/A
6:20 PM57 °FCool.6 mph77%29.71 "HgN/A
5:20 PM59 °FCool.7 mph68%29.71 "HgN/A
4:20 PM59 °FCool.6 mph68%29.71 "HgN/A
3:20 PM57 °FCool.6 mph77%29.74 "HgN/A
2:20 PM57 °FCool.6 mph77%29.74 "HgN/A
1:20 PM55 °FCool.8 mph82%29.74 "HgN/A
12:20 PM54 °FCool.7 mph88%29.74 "HgN/A
Weather by CustomWeather, © 2015

See weather overviewHow to use our weather pages